This is the latest recevied weather packets stored in our database for station/object WA9SDJ-13. If no packets are shown the sender has not sent any weather packets the latest 10 day(s).
| Time | Temp. | Humidity | Pressure | Rain* | Wind** | Luminosity | Snow |
|---|---|---|---|---|---|---|---|
| 1778264589 | 19.44° C | 57% | 1009.5 hPa | 0 mm | - | 104 W/m² | - |
| 1778264529 | 19.44° C | 58% | 1009.6 hPa | 0 mm | - | 107 W/m² | - |
| 1778264469 | 19.44° C | 59% | 1009.5 hPa | 0 mm | - | 111 W/m² | - |
| 1778264408 | 19.44° C | 58% | 1009.6 hPa | 0 mm | - | 111 W/m² | - |
| 1778264349 | 19.44° C | 58% | 1009.5 hPa | 0 mm | - | 111 W/m² | - |
| 1778264289 | 19.44° C | 59% | 1009.6 hPa | 0 mm | - | 113 W/m² | - |
| 1778264230 | 19.44° C | 59% | 1009.5 hPa | 0 mm | - | 114 W/m² | - |
| 1778264168 | 19.44° C | 59% | 1009.5 hPa | 0 mm | - | 116 W/m² | - |
| 1778264108 | 19.44° C | 59% | 1009.6 hPa | 0 mm | - | 113 W/m² | - |
| 1778264048 | 19.44° C | 60% | 1009.5 hPa | 0 mm | - | 116 W/m² | - |
| 1778263988 | 19.44° C | 58% | 1009.6 hPa | 0 mm | - | 123 W/m² | - |
| 1778263928 | 19.44° C | 59% | 1009.5 hPa | 0 mm | - | 128 W/m² | - |
| 1778263868 | 19.44° C | 60% | 1009.6 hPa | 0 mm | - | 132 W/m² | - |
| 1778263808 | 19.44° C | 60% | 1009.5 hPa | 0 mm | - | 139 W/m² | - |
| 1778263748 | 19.44° C | 60% | 1009.5 hPa | 0 mm | - | 158 W/m² | - |
| 1778263689 | 19.44° C | 60% | 1009.5 hPa | 0 mm | - | 162 W/m² | - |
| 1778263629 | 19.44° C | 61% | 1009.6 hPa | 0 mm | - | 164 W/m² | - |
| 1778263569 | 19.44° C | 61% | 1009.5 hPa | 0 mm | - | 167 W/m² | - |
| 1778263508 | 19.44° C | 61% | 1009.5 hPa | 0 mm | - | 176 W/m² | - |
| 1778263448 | 19.44° C | 60% | 1009.6 hPa | 0 mm | - | 188 W/m² | - |
| 1778263389 | 19.44° C | 59% | 1009.7 hPa | 0 mm | - | 192 W/m² | - |
| 1778263329 | 19.44° C | 59% | 1009.6 hPa | 0 mm | - | 185 W/m² | - |
| 1778263268 | 19.44° C | 60% | 1009.8 hPa | 0 mm | - | 171 W/m² | - |
| 1778263208 | 19.44° C | 59% | 1009.7 hPa | 0 mm | - | 158 W/m² | - |
| 1778263148 | 19.44° C | 60% | 1009.8 hPa | 0 mm | - | 146 W/m² | - |
* Rain latest hour (hover to see other rain measurements)
** Current wind speed in m/s (hover to see current wind gust speed)